GORIZONT 25 1 21922U 92017A 10066.38116926 -.00000222 00000-0 10000-3 0 3304 2 21922 12.0104 39.6673 0027986 305.5328 54.2320 0.99843851 65574 GORIZONT 26 1 22041U 92043A 10070.12992022 -.00000110 00000-0 10000-3 0 9359 2 22041 11.8928 41.0180 0027375 111.7056 248.6505 0.99245541 64525 GORIZONT 27 1 22245U 92082A 10066.50489278 .00000073 00000-0 10000-3 0 5194 2 22245 11.7935 42.0700 0015516 237.4261 122.4546 1.00144821 67580 GORIZONT 28 1 22880U 93069A 10068.81037787 -.00000274 00000-0 10000-3 0 3287 2 22880 11.3437 45.3335 0031543 2.4555 357.6122 0.99653187 59919 GORIZONT 29 1 22907U 93072A 10069.64261189 .00000001 00000-0 10000-3 0 7380 2 22907 11.3252 45.3893 0013403 223.4817 136.4691 1.00157182 59690 GORIZONT 30 1 23108U 94030A 10069.69468051 -.00000109 00000-0 10000-3 0 5569 2 23108 11.1789 46.6386 0001876 241.1822 118.8562 1.00276399 57907 GORIZONT 31 1 23775U 96005A 10069.64260272 .00000008 00000-0 10000-3 0 9272 2 23775 10.1644 52.3135 0018674 72.2520 288.0325 0.99896291 51697 GORIZONT 32 1 23880U 96034A 10071.11601473 -.00000123 00000-0 10000-3 0 4159 2 23880 10.0333 53.3262 0003851 309.8194 194.0271 1.00274316 50525 GORIZONT 33 1 26372U 00029A 10069.74038242 -.00000116 00000-0 10000-3 0 6773 2 26372 7.3145 62.2816 0003345 286.9814 73.1154 1.00255156 35846